Location: Eppenbrunn
(49.1158°N, 7.5601°E)
Time: 10:57:50
(UTC+00:00)

Cosmos 2184 Rocket - Pass Details

Date: 09 April 2020
Orbit: 958 x 1003 km, 82.9° (Epoch: 25 May)

Event Time Altitude Azimuth Distance (km) Brightness Sun altitude
Rises 18:59:20 0° 349° (NNW) 3,710 7.5 -8.0°
Reaches altitude 10° 19:01:53 10° 347° (NNW) 2,751 6.9 -8.3°
Maximum altitude 19:08:09 72° 265° (W) 1,025 4.3 -9.3°
Drops below altitude 10° 19:14:18 10° 182° (S) 2,701 6.1 -10.2°
Sets 19:16:47 0° 180° (S) 3,639 6.7 -10.6°
